Вернуться в каталог

COSMOS 375 DEB

АктивенLEO
NORAD 4724·DEBRIS·🇷🇺 Russia

Запущен Oct 30, 1970 с Baikonur Cosmodrome

Loading…

Ближайшие Пролёты (ближайшие 24 часа)

TLE

СвежийSource: Space-Track

Эпоха: Sep 14, 2026, 11:51 UTC

1 04724U 70091V   26257.49412118  .00001510  00000-0  26631-3 0  9994
2 04724  62.7768 228.8901 0400092 174.6351 185.9203 14.30461356771946

Отслеживайте COSMOS 375 DEB в реальном времени с AllMySat

Download on the App Store